AQI (37)

Current Conditions for Foresthill, CA. Clear skies, Dry   
Visibility: 10 miles
Foresthill Advisory text:

  Summary / Temperature 

Current Temperature
47.6°F
8.7°C
(24/hr Ago)
48.8°F
(Apparent temp)
44.7°F
Cool
Wind Chill Graphs
45.4°F 

47.6°F/ 8.7°C
 --- Virtual Temp: 49.5°F ---

 Temp Rate:

 24/hr Difference:

 Avg Running Temp:

 Todays High:

 Todays Low:

 Y-days High:

 Y-days Low:

 Todays WChill:

 Y-days WChill:

 Evapotranspiration:

-0.2°F/hr 

-1.2°F

48.2°F

48.3°F 12:00am

47.6°F 1:02am

58.2°F 2:28pm

44.7°F 6:20am

44.0°F 12:54am

34.8°F 6:21am

0.000 in

115' Above Ground

 Temperature:

 6'AGL VRS 115'AGL:

 Avg Running Temp:

 Humidity:

 Todays High:

 Todays Low:

 Y-days High:

 Y-days Low:

51.0°F 

+3.4°F

51.4°F

66% 

52.0°F 12:00am

51.0°F 12:12am

61.0°F 1:54pm

46.0°F 5:44am

Temp & Humidity Graphs

  Wind 

Wind Speed

 6.0 mph

Gusting to

 8.0 mph

Wind from ESE

110°  ESE

Light breeze

 Avg speed:

 Wind Run:

 Peak Gust:

  2.0 mph 

2.0 miles

  8.0 mph 12:49am

  Almanac  

Moon age: 0 days,5 hours,53 minutes,0%

New moon
0%
Illuminated
0 days in cycle

 Moonrise:

 Moonset:

 Sunrise:

 Sunset:

 Solar Noon:

7:39am

5:56pm

7:17am

5:05pm

12:14pm

1min 29s more daylight tomorrow 

  Solar Radiation 

(Current Solar)
  No Sun Light
(Todays High)
 None@12:00am

Rain

 Rain Today:

 Rain Rate (/hr):

 Rain last hour:

 Rain Yesterday:

 This Month:

 Season Total:

1 Day Since Last Dry Day

0.00 in

0.000 in

0.00 in

0.11 in

5.39 in

18.70 in

Updated Time

Updated: 1/17/18  1:02am

(Updated  sec ago)

Humidity & Barometer

 Humidity:

 Wetbulb:

 Dew Point:

 Barometer:

82% 

45.2°F 

42.4°F 

30.275 inHg 

 Baro Trend:  Steady 
Northern Calif
Preparedness
Fire 
Level 

    UV Index  

(Current UV)
0.0  None
(Todays High) @ 12:00am
0.0   None

National Weather Service Forecast

Overnight

Overnight: Mostly Cloudy
Mostly Cloudy
Wednesday

Wednesday: Partly Sunny
Partly Sunny
Wednesday
Night
Wednesday Night: Mostly Cloudy
Mostly Cloudy
Thursday

Thursday: Heavy Rain
Heavy Rain
Thursday
Night
Thursday Night: Heavy Rain
Heavy Rain
Friday

Friday: Rain Showers Likely then Chance Rain And Snow Showers
Rain Showers Likely then Chance Rain And Snow Showers
Lo 47 °F Hi 60 °F Lo 46 °F Hi 53 °F Lo 38 °F Hi 43 °F

Foresthill Probe 2 Stats  
Foresthill Probe 2: is located on Thomas Street
at 3000 feet. The main Foresthill Weather site
is located on Melody ln at the 2860 foot elevation

Calm
45.4°F
7.4°C
Temp Rate:
-0.7°F
Calm
Gusting to
2.0 mph
(Humidity)
88%
Wind from SE
129°  SE
Updated: 17/01/18 - 00:58:43
 Todays High: 45.9°F 00:00
 Todays Low: 45.4°F 00:46
 Rain Today: 0.00 in
 Season Total: 19.45 in

Foresthill Wx: Monthly,Yearly, Highs and Lows 

Foresthill  
This Weather Data is coming from the main Foresthill
Weather site located on Melody ln at the 2860 foot
elevation
Not Foresthill Probe 2
Weather Data
Month
  High
Month
  Low
Year
High
Year
Low
Temp 63.0°F
1/14/18
39.9°F
1/7/18
63.0°F
1/14/18
39.9°F
1/7/18
Humidity 100%
1/8/18
37%
1/1/18
100%
1/8/18
37%
1/1/18
Heat Index 64.3°F
1/14/18
44.1°F
1/7/18
64.3°F
1/14/18
44.1°F
1/7/18
Wind Chill 63.0°F
1/14/18
31.8°F
1/7/18
63.0°F
1/14/18
31.8°F
1/7/18
Wind Gust 31 mph
1/16/18
0 mph
1/1/18
31 mph
1/16/18
0 mph
1/1/18
Barometer 30.44 in
1/12/18
29.63 in
1/9/18
30.44 in
1/12/18
29.63 in
1/9/18
ET 0.08 in
1/1/18
0.00 in
1/1/18
0.08 in
1/1/18
0.00 in
1/1/18
Dew Point 52.5°F
1/5/18
27.1°F
1/1/18
52.5°F
1/5/18
27.1°F
1/1/18
Pacific Satellite US Radar Satellite Imagery Sacramento,CA.  (click to enlarge)
NWS Weather Forecast - Summary
Updated: Tue Jan 16 2018 .DISC - 2:05pm (PST)
Current Interstate Highway Conditions for I-80 & US-50

[I 80: IN THE SAN FRANCISCO BAY AREA - SOLANO CO]
no traffic restrictions are reported for this area.


[I 80: IN THE NORTHERN CALIFORNIA AREA & SIERRA NEVADA]
no traffic restrictions are reported for this area.

[US 50: IN THE SACRAMENTO VALLEY & THE LAKE TAHOE BASIN]
no traffic restrictions are reported for this area.
[capital city freeway]
no traffic restrictions are reported for this area.
NWS Weather Forecast: Overnight and Wednesday (Updated: Tue, 16-Jan-2018 1:11pm PST)
Overnight

Overnight: Mostly Cloudy
Mostly Cloudy

Lo 47 °F
NWS forecast: Mostly cloudy, with a low around 47. East wind around 5 mph.
Wednesday

Wednesday: Partly Sunny
Partly Sunny

Hi 60 °F
NWS forecast: Partly sunny. High near 60, with temperatures falling to around 53 in the afternoon. East southeast wind around 6 mph.
YR.NO 10 Day Weather forecast
Last update: 01/16/2018 @ 11:41
Next update: 01/17/2018 @ 00:00
Provided by: 22
      Temperature Precipitation Pressure Wind  
Tomorrow
01/16/2018
23:00 00:00 39°F   30.24 inHg Light air from east-northeast 2 mph
    (Click to enlarge)
meteogram

    Forecast for next 9 days

      Temperature Precip Pressure Wind  
Today 00:00 06:00 37°F   30.26 inHg Light air from east-northeast 2 mph
  06:00 12:00 41°F   30.24 inHg Light air from east-northeast 3 mph
  12:00 18:00 61°F   30.22 inHg Light breeze from south-southwest 4 mph
  18:00 00:00 48°F   30.18 inHg Light breeze from east-northeast 4 mph
      Temperature Precip Pressure Wind  
Thursday
01/18/2018
00:00 06:00 43°F   30.19 inHg Light air from east-northeast 1 mph
  06:00 12:00 45°F   30.11 inHg Light breeze from east 4 mph
  12:00 18:00 54°F 0.22 in 30.09 inHg Gentle breeze from south-southwest 9 mph
  18:00 00:00 46°F 0.63 in 30.00 inHg Light breeze from south-southwest 7 mph
      Temperature Precip Pressure Wind  
Friday
01/19/2018
00:00 06:00 41°F 0.14 in 30.07 inHg Gentle breeze from southwest 10 mph
  04:00 10:00 37°F 0.08 in 30.10 inHg Light breeze from south-southwest 5 mph
  10:00 16:00 39°F 0.07 in 30.16 inHg Light breeze from south 4 mph
  16:00 22:00 39°F   30.07 inHg Light air from west-northwest 2 mph
  22:00 04:00 28°F   30.09 inHg Light breeze from east-northeast 4 mph
      Temperature Precip Pressure Wind  
Saturday
01/20/2018
04:00 10:00 23°F   30.08 inHg Light breeze from east-northeast 6 mph
  10:00 16:00 39°F   30.13 inHg Light air from north 1 mph
  16:00 22:00 39°F   30.15 inHg Light breeze from west 4 mph
  22:00 04:00 25°F   30.27 inHg Light breeze from east-northeast 4 mph
      Temperature Precip Pressure Wind  
Sunday
01/21/2018
04:00 10:00 25°F   30.29 inHg Light breeze from east-northeast 5 mph
  10:00 16:00 41°F   30.36 inHg Light air from south 3 mph
  16:00 22:00 41°F   30.32 inHg Light breeze from south-southwest 4 mph
  22:00 04:00 37°F 0.06 in 30.31 inHg Light breeze from southeast 6 mph
      Temperature Precip Pressure Wind  
Monday
01/22/2018
04:00 10:00 37°F 0.28 in 30.25 inHg Light breeze from southeast 7 mph
  10:00 16:00 37°F 0.12 in 30.26 inHg Light breeze from east-southeast 7 mph
  16:00 22:00 41°F 0.07 in 30.18 inHg Light breeze from south-southeast 7 mph
  22:00 04:00 37°F   30.21 inHg Light air from northeast 2 mph
      Temperature Precip Pressure Wind  
Tuesday
01/23/2018
04:00 10:00 37°F   30.18 inHg Light air from northeast 2 mph
  10:00 16:00 43°F   30.20 inHg Light air from north-northeast 2 mph
  16:00 22:00 46°F   30.14 inHg Light air from west 3 mph
  22:00 04:00 30°F   30.21 inHg Light air from east-northeast 2 mph
      Temperature Precip Pressure Wind  
Wednesday
01/24/2018
04:00 10:00 27°F   30.20 inHg Light breeze from east-northeast 4 mph
  10:00 16:00 43°F   30.28 inHg Light air from east 2 mph
  16:00 22:00 45°F   30.24 inHg Light air from west-southwest 2 mph
  22:00 04:00 41°F   30.28 inHg Light air from southeast 2 mph
      Temperature Precip Pressure Wind  
Thursday
01/25/2018
04:00 10:00 37°F   30.27 inHg Light air from east-northeast 2 mph
  10:00 16:00 46°F   30.30 inHg Light air from north 1 mph
  16:00 22:00 48°F   30.23 inHg Light breeze from west-northwest 5 mph
  22:00 04:00 34°F   30.24 inHg Light breeze from east-northeast 6 mph
How Close Are We To this Month's Temperature Record ?
Updated Wednesday, Jan 17, 2018- 12:55:01 AM

Current Temperature: 47.6°F

January's High: Temperature Record 71.3°F - Set on Sat, Jan 24, 2015 - 3:19:00 PM
We are currently 23.7°F Less than this Month's record High

January's Low: Temperature Record 24.7°F - Set on Sun, Jan 13, 2013 - 7:29:00 AM
We are currently 22.9°F More than this Month's record Low

Weather History For Wednesday, January 17, 2018


On this Day - In Weather History ...
Data courtesy of weatherforyou.com
powered by Cumulus v1.9.3 (1059)
Ambient Weather VWS v14.00
Top Contact Website Map Copyright © 2007 - 2018 Foresthillweather.com Never base important decisions on this or any weather information obtained from the Internet